Grand Rapids, MI (49504)

12:04 AM EST on January 24, 2017 (GMT -0500)
Near Lake Michigan Dr and Collindale | | Change Station
Active Advisory: Flood Advisory

Elev 748 ft 42.98 °N, 85.74 °W | Updated 29 seconds ago

Overcast
Overcast
40.0 °F
Feels Like 40 °F
N
2.0
Wind Variable Wind from NW
Gusts 5.0 mph

Today
High -- | Low -- °F
--% Chance of Precip.
Yesterday
High -- | Low -- °F
Precip. -- in
Pressure 29.76 in
Visibility 8.0 miles
Clouds Overcast 600 ft
Windchill 40 °F
Dew Point 38 °F
Humidity 94%
Rainfall 0.00 in
Snow Depth Not available.
8:05 AM 5:45 PM
Waning Crescent, 14% visible
METAR KGRR 240453Z 33005KT 8SM -RA OVC006 04/03 A2974 RMK AO2 SLP077 P0001 T00440033 400560044
Pressure 29.76 in
Visibility 8.0 miles
Clouds Overcast 600 ft
Windchill 40 °F
Dew Point 38 °F
Humidity 94%
Rainfall 0.00 in
Snow Depth Not available.
8:05 AM 5:45 PM
Waning Crescent, 14% visible
METAR KGRR 240453Z 33005KT 8SM -RA OVC006 04/03 A2974 RMK AO2 SLP077 P0001 T00440033 400560044

Get Your Daily Forecast Email!

Thanks for signing up!

Be on the lookout for a verification email in your inbox.

You'll start receiving the daily forecast at 8 AM.

×

10-Day Weather Forecast

Almanac

Astronomy

Jan. 24, 2017 Rise Set
Actual Time
Civil Twilight
Nautical Twilight
Astronomical Twilight
Moon
Length of Visible Light
Length of Day
Tomorrow will be .
, % of the Moon is Illuminated

Today's Extremes

State Highs State Lows

Community

WunderPhotos

Upload Photos

1,962,540 photos uploaded!

WunderBlog® & News

Nearby

Air Quality

  Air Quality AQ Index Pollutant
Not available.

Snow Depth

Station Depth Elevation

Earthquake Activity

City Distance Mag. Time & Date
Minimum magnitude displayed is 2.5.

Coastal Water Temperatures

Place Temperature

Stations

Nearby Weather Stations

Station Location Temp. Windchill Dew Point Humidity Wind Precip. Elev Updated Type
                   

Watches & Warnings

Flood Advisory
Issued: 10:20 PM EST Jan. 23, 2017 – National Weather Service

The Flood Advisory continues for
the Grand River at Lowell
* until Friday morning.
* There is not current observed data.
* Bankfull stage is 10.0 feet.
* Flood stage is 15.0 feet.
* Forecast, the river is forecasted to remain around 10 feet through
Tuesday.
* Impact, at 10.0 feet... river is bankfull. Expect flooding of low
lying areas adjacent to the banks.


Lat... Lon 4289 8548 4289 8534 4290 8521 4297 8524
      4296 8534 4298 8541